Погода Петропавловск-Камч.

Хотите узнать прогноз погоды Петропавловск-Камч.? Тогда Вам сюда: Погода Петропавловск-Камч.

Поиск расширенной информации на нашем сайте:

Полезная информация:

Новости сайта



02.01.2020
Опубликован Долгосрочный прогноз погоды по городам России и ближнего зарубежья на январь 2020 года.
Карты: Прогноз на январь и февраль 2020 года, Сравнение прогнозируемой аномалии приземной температуры воздуха на январь 2020 года по разным моделям.




Погода Петропавловск-Камч. - сегодня

Время (UTC), дата Ветер
(°,м/с) 
Видим.   Явления Облачность Т
(°С)
Тd
(°С)
f(%) Тe
(°С)
Pmin
(гПа)
dP
(гПа)
Po
(мм)
O2
(г/м3)
Тmin Tmax R s Состояние
почвы
00 16.01.22 010 (С) 20000 м  осадки на расстоянии  5/3 600 м кучево-дожд., средняя 
[Cb cap|Ac trans]
-4.2 -9.5 66 -6  1009.9  -0.1  755  310  -4.2         
03 16.01.22 360 (С) 20000 м    9/9 600 м 
[Sc]
-3.2 -12.3 49 -6  1008.7  -1.2  754  309           
06 16.01.22 010 (С) 20000 м  осадки на расстоянии  9/9 600 м кучево-дожд. 
[Cb cap]
-3.4 -12 51 -6  1009.3  0.5  755  309           
09 16.01.22 030 (СВ) 20000 м    9/6 600 м средняя 
[Sc|Ac trans]
-4.3 -13 51 -7  1009.9  0.6  755  310    -3       
12 16.01.22 010 (С) 20000 м    8/4 600 м средняя 
[Sc|Ac trans]
-4.6 -13 52 -7  1010.5  0.6  756  311           
15 16.01.22 360 (С) 6-10{11}  20000 м    9/5 1000 м средняя 
[Sc|Ac trans]
-5.2 -14.7 47 -10  1010.6  0.1  756  312           
18 16.01.22 360 (С) 6-10{12}  20000 м    9/6 600 м средняя 
[Sc|Ac trans]
-6.8 -16 48 -12  1009.6  -1  755  313           
21 16.01.22 010 (С) 6-11{11}  20000 м    10/6 600 м средняя 
[Sc|Ac trans]
-5.7 -16.2 43 -10  1010.2  0.6  755  312  -7      72  неравномерный
мокрый или
старый снег
100% 
00 17.01.22 350 (С) 7-10{11}  20000 м    10/10 600 м 
[Sc]
-5.1 -15.1 45 -10  1010.1  -0.1  755  311           
03 17.01.22 350 (С) 4{10}  20000 м    10/8 600 м средняя 
[Sc|Ac trans]
-4 -13.5 48 -7  1009.4  -0.7  755  310           
06 17.01.22 350 (С) 20000 м    10/3 1000 м средняя, верхняя 
[Sc|Ac trans|Ci fib]
-4.4 -13.8 48 -8  1009.7  0.3  755  310           
09 17.01.22 010 (С) 20000 м    9/5 600 м средняя 
[Sc|Ac trans]
-6.3 -15.5 48 -9  1009.8  0.1  755  313    -3.7       
12 17.01.22 020 (С) 20000 м    3/3 600 м 
[Sc]
-7.1 -16.3 48 -11  1009.2  -0.6  755  314           
15 17.01.22 360 (С) 5{11}  20000 м    8/8 600 м 
[Sc]
-7 -16.3 47 -11  1007.6  -1.6  753  313           
18 17.01.22 020 (С) 4{10}  20000 м    8/8 600 м 
[Sc]
-6.8 -16.2 47 -10  1006.9  -0.7  753  312           
21 17.01.22 360 (С) 5-10{10}  10 км    10/10 600 м 
[Sc]
-6.2 -13.6 56 -10  1005.5  -1.4  752  311  -7.3    0.0  72  неравномерный
мокрый или
старый снег
100% 
00 18.01.22 010 (С) 4{11}  20000 м  {ливн. осадки}  10/10 600 м 
[Sc]
-5.5 -10.7 67 -9  1005.7  0.2  752  310           
03 18.01.22 360 (С) 20000 м    10/10 600 м 
[Sc]
-4.5 -8.4 74 -7  1005.1  -0.6  752  309           
06 18.01.22 010 (С) 20000 м    10/10 600 м 
[Sc]
-3.2 -6.7 77 -6  1005.3  0.3  752  307           
09 18.01.22 040 (СВ) 20000 м    10/8 600 м средняя 
[Sc|Ac trans]
-3 -10.6 56 -4  1006.3  752  308    -0.8  0.0     
12 18.01.22 360 (С) 20000 м    8/5 600 м средняя 
[Sc|Ac trans]
-4.6 -13.7 49 -8  1006.3  752  310           
15 18.01.22 010 (С) 4{12}  20000 м    10/5 600 м средняя, верхняя 
[Sc|Ac trans|Ci fib]
-4.5 -13.4 50 -8  1005.3  -1  752  309           
18 18.01.22 350 (С) 5{11}  10 км    10/10 600 м 
[Sc]
-4.4 -12.5 53 -8  1004.8  -0.5  751  309           
21 18.01.22 340 (С) 20000 м    10/10 600 м 
[Sc]
-3.8 -10.4 60 -7  1005.1  0.3  752  308  -4.9      71  неравномерный
мокрый или
старый снег
100% 
00 19.01.22 360 (С) 20000 м    10/10 600 м 
[Sc]
-3.6 -11.3 55 -6  1005.2  0.1  752  308           
Время (UTC), дата Ветер
(°,м/с) 
Видим.   Явления Облачность Т
(°С)
Тd
(°С)
f(%) Тe
(°С)
Pmin
(гПа)
dP
(гПа)
Po
(мм)
O2
(г/м3)
Тmin Tmax R s Состояние
почвы

Для получения пояснительной информации подведите курсор к названию столбца.

ПОГОДА Петропавловск-Камч. - архив

Всё, что Вы хотите узнать о погоде Петропавловск-Камч. - удобно и подробно!

Выберите нужную дату (начиная с 1 января 2019* года) и нажмите кнопку "Найти".
Будут отображены архивные сводки погоды по пункту Петропавловск-Камч., начиная с указанной даты.


Отображать данные в формате CSV (для использования в таблицах Excel)


Внимание! Наш архив погоды предназначен исключительно для личного некоммерческого использования в познавательных целях. Если Вам необходимы официальные справки о состоянии погоды (для производственных, юридических, коммерческих и т.п. целей), обращайтесь в органы Росгидромета.

*Примечание: данная дата относится к архиву по метеостанциям СССР (Россия, СНГ, Балтия).
Архив по метеостанциям Зарубежной Европы и Азии (кроме Китая) хранится 10 дней, по другим регионам земного шара (Китай, Африка, Америка, Австралия, Океания) - 1 день.

Петропавловск-Камч. - район местоположения метеостанции


Название, широта, долгота, высота метеостанции:
Петропавловск-Камч. (обсерватория) 53°ш. 158.6°д. 24 м над ур. моря [Российская Федерация]

Дополнительная информация

В oтличие oт бoльшинства пoгoдных сайтoв мы публикуем пoдрoбную метеoинфoрмацию в детальнoм прoфессиoнальнoм фoрмате.

Характеристики температуры и влажнoсти вoздуха измеряются на высoте 2 м в тени вдали oт зданий и деревьев.
Скoрoсть ветра измеряется на высoте 10 м (на урoвне рoста челoвека скoрoсть ветра ниже в 1.5-2 раза). Если метеoстанция нахoдится в гoрoде или в лесу, тo скoрoсть ветра занижена на 2-4 м/с пo сравнению с oткрытым местoм. Скoрoсть ветра над акватoриями крупных рек и oзёр, а также на вершинах хoлмoв на 2-5 м/с выше, чем в oбычных услoвиях.
Атмoсфернoе давление в разных тoчках местнoсти мoжет значительнo oтличаться oт давления на метеoстанции, в зависимoсти oт услoвий рельефа (при пoдъёме на 10 м давление пoнижается примернo на 1 мм рт.ст.).